Content
SEND FEEDBACK

Daily
Averages
Monthly
Summary
United States of America

VERNON, VERMONT


Home > North America > United States > Vermont
Elevation: 238 feet     Latitude: 42 46N     Longitude: 072 31W

WEATHER
 
SELECT A DAY
Number of Records: 453,343;   Date Range: 1/1/95 - 10/30/14
 
SHARE

PRINT THIS DATA

[ ← Previous Day ]
WEATHER ALMANAC - JUNE 18, 2014
[ Next Day → ]
[ °C ]   °F
Weather ElementAverageHighLow
Temperature73.4 °F80.6 °F (2:55 pm)64.4 °F (11:15 pm)
Dewpoint57.6 °F62.6 °F (12:35 am)53.6 °F (8:15 pm)
Humidity58.9 %78 % (2:55 am)42 % (4:35 pm)
Barometer29.85 in29.98 in (11:35 pm)29.75 in (1:35 am)
Wind Speed7.8 mph19.6 mph (12:35 pm)
Wind Gust25.3 mph (1:55 am)
Weather ElementAverage
Visibility9.9 mi
Wind DirectionWSW (235.4 °)

Weather ElementTotal
Precipitation0.65 in
Cooling Degree Days7.5 (Base 65)
Growing Degree Days22.5 (Base 50)
Averaged from 70 records on June 18, 2014
WEATHER CONDITIONS BREAKOUT
WIND DIRECTION BREAKOUT
WEATHER BY HOUR - JUNE 18, 2014
[ °C ]   °F
Local TimeTemperatureDewpointHumidityBarometerVisibilityWind DirectionWind SpeedGust SpeedPrecipitationEventsConditions
12:35 AM73.4 °F62.6 °F69 %29.79 in10.0 miSouth (170°)11.5 mphClear
12:55 AM73.4 °F62.6 °F69 %29.77 in10.0 miSouth (180°)8.1 mphClear
1:15 AM73.4 °F62.6 °F69 %29.76 in10.0 miSouth (170°)8.1 mphClear
1:35 AM73.4 °F62.6 °F69 %29.75 in10.0 miSouth (180°)9.2 mphClear
1:55 AM73.4 °F60.8 °F65 %29.81 in9.0 miWSW (240°)13.8 mph25.3 mph0.02 inThunderstormMostly Cloudy
2:15 AM71.6 °F60.8 °F69 %29.81 in10.0 miSSW (210°)6.9 mph0.05 inOvercast
2:35 AM69.8 °F60.8 °F73 %29.81 in9.0 miSSW (200°)8.1 mph0.13 inOvercast
2:55 AM68.0 °F60.8 °F78 %29.80 in10.0 miSouth (180°)9.2 mph0.20 inOvercast
3:15 AM68.0 °F59.0 °F73 %29.79 in10.0 miSSE (160°)8.1 mph0.07 inOvercast
3:35 AM68.0 °F59.0 °F73 %29.78 in10.0 miSouth (180°)6.9 mph0.09 inMostly Cloudy
3:55 AM66.2 °F59.0 °F78 %29.76 in10.0 miSouth (190°)5.8 mph0.09 inPartly Cloudy
4:15 AM66.2 °F59.0 °F78 %29.76 in10.0 miCalmMostly Cloudy
4:35 AM66.2 °F57.2 °F73 %29.76 in10.0 miSSW (210°)6.9 mphScattered Clouds
4:55 AM66.2 °F57.2 °F73 %29.75 in10.0 miSW (230°)6.9 mphPartly Cloudy
5:15 AM66.2 °F57.2 °F73 %29.76 in10.0 miSW (220°)5.8 mphMostly Cloudy
5:35 AM66.2 °F57.2 °F73 %29.75 in10.0 miSW (230°)8.1 mphOvercast
5:55 AM66.2 °F57.2 °F73 %29.76 in8.0 miSW (230°)8.1 mphOvercast
6:15 AM66.2 °F59.0 °F78 %29.76 in10.0 miSW (230°)5.8 mphMostly Cloudy
6:35 AM68.0 °F59.0 °F73 %29.76 in10.0 miSSW (210°)4.6 mphMostly Cloudy
6:55 AM69.8 °F59.0 °F68 %29.76 in10.0 miSW (220°)6.9 mphMostly Cloudy
7:15 AM69.8 °F60.8 °F73 %29.77 in10.0 miCalmOvercast
7:35 AM69.8 °F60.8 °F73 %29.77 in10.0 miSW (220°)5.8 mphOvercast
7:55 AM71.6 °F60.8 °F69 %29.78 in10.0 miWSW (250°)6.9 mphScattered Clouds
8:15 AM73.4 °F59.0 °F61 %29.78 in10.0 miWest (280°)10.4 mph16.1 mphClear
8:35 AM73.4 °F59.0 °F61 %29.79 in10.0 miNW (310°)8.1 mphScattered Clouds
8:55 AM73.4 °F59.0 °F61 %29.78 in10.0 miWest (280°)8.1 mphMostly Cloudy
9:15 AM73.4 °F59.0 °F61 %29.78 in10.0 miNNW (330°)9.2 mphMostly Cloudy
9:55 AM75.2 °F59.0 °F57 %29.80 in10.0 miNorth (350°)11.5 mph19.6 mphMostly Cloudy
10:15 AM75.2 °F59.0 °F57 %29.82 in10.0 miNorth (350°)12.7 mph23.0 mphPartly Cloudy
10:35 AM77.0 °F57.2 °F50 %29.83 in10.0 miNorth (350°)17.3 mph25.3 mphPartly Cloudy
10:55 AM78.8 °F57.2 °F47 %29.84 in10.0 miNNW (330°)13.8 mph24.2 mphClear
11:15 AM77.0 °F57.2 °F50 %29.85 in10.0 miNNW (330°)9.2 mph21.9 mphScattered Clouds
11:35 AM78.8 °F57.2 °F47 %29.85 in10.0 miNW (320°)12.7 mph21.9 mphScattered Clouds
11:55 AM78.8 °F57.2 °F47 %29.86 in10.0 miNW (320°)10.4 mphMostly Cloudy
12:15 PM78.8 °F57.2 °F47 %29.87 in10.0 miNorth (10°)16.1 mph20.7 mphMostly Cloudy
12:35 PM78.8 °F57.2 °F47 %29.87 in10.0 miNorth (360°)19.6 mph25.3 mphMostly Cloudy
12:55 PM78.8 °F57.2 °F47 %29.87 in10.0 miNW (320°)11.5 mph18.4 mphMostly Cloudy
1:15 PM78.8 °F59.0 °F51 %29.87 in10.0 miNNW (330°)11.5 mph18.4 mphMostly Cloudy
1:35 PM78.8 °F59.0 °F51 %29.88 in10.0 miWNW (300°)5.8 mphOvercast
1:55 PM78.8 °F59.0 °F51 %29.89 in10.0 miNNW (330°)8.1 mphOvercast
2:15 PM78.8 °F57.2 °F47 %29.89 in10.0 miNW (320°)10.4 mph17.3 mphOvercast
2:35 PM78.8 °F57.2 °F47 %29.89 in10.0 miNNW (330°)16.1 mph21.9 mphOvercast
2:55 PM80.6 °F57.2 °F45 %29.90 in10.0 miNW (310°)11.5 mph20.7 mphPartly Cloudy
3:15 PM80.6 °F59.0 °F48 %29.89 in10.0 miNNW (330°)9.2 mph19.6 mphClear
3:35 PM80.6 °F57.2 °F45 %29.88 in10.0 miNNW (340°)10.4 mph17.3 mphClear
3:55 PM80.6 °F57.2 °F45 %29.87 in10.0 miNW (310°)10.4 mph16.1 mphClear
4:15 PM80.6 °F57.2 °F45 %29.88 in10.0 miNorth (360°)13.8 mph19.6 mphScattered Clouds
4:35 PM80.6 °F55.4 °F42 %29.89 in10.0 miNW (310°)9.2 mphScattered Clouds
4:55 PM80.6 °F55.4 °F42 %29.89 in10.0 miNW (320°)8.1 mphMostly Cloudy
5:15 PM80.6 °F55.4 °F42 %29.89 in10.0 miWNW (300°)11.5 mph18.4 mphScattered Clouds
5:35 PM80.6 °F55.4 °F42 %29.89 in10.0 miNorth (350°)12.7 mph18.4 mphPartly Cloudy
5:55 PM78.8 °F55.4 °F44 %29.90 in10.0 miNW (310°)8.1 mphScattered Clouds
6:15 PM78.8 °F55.4 °F44 %29.89 in10.0 miNNW (330°)5.8 mphPartly Cloudy
6:35 PM77.0 °F55.4 °F47 %29.90 in10.0 miWNW (290°)5.8 mphClear
6:55 PM75.2 °F55.4 °F50 %29.91 in10.0 miWest (270°)4.6 mphClear
7:15 PM75.2 °F55.4 °F50 %29.91 in10.0 miWest (260°)4.6 mphClear
7:35 PM75.2 °F55.4 °F50 %29.92 in10.0 miWest (260°)4.6 mphClear
7:55 PM75.2 °F55.4 °F50 %29.93 in10.0 miWNW (290°)6.9 mphClear
8:15 PM73.4 °F53.6 °F50 %29.94 in10.0 miWest (280°)3.5 mphClear
8:35 PM73.4 °F53.6 °F50 %29.94 in10.0 miWSW (240°)4.6 mphClear
8:55 PM71.6 °F53.6 °F53 %29.94 in10.0 miSW (220°)4.6 mphClear
9:15 PM69.8 °F55.4 °F60 %29.95 in10.0 miSW (230°)4.6 mphClear
9:35 PM71.6 °F53.6 °F53 %29.96 in10.0 miCalmClear
9:55 PM69.8 °F55.4 °F60 %29.96 in10.0 miSSW (200°)3.5 mphClear
10:15 PM68.0 °F55.4 °F64 %29.96 in10.0 miCalmClear
10:35 PM66.2 °F55.4 °F68 %29.97 in10.0 miCalmClear
10:55 PM66.2 °F55.4 °F68 %29.97 in10.0 miCalmClear
11:15 PM64.4 °F53.6 °F68 %29.97 in10.0 miCalmClear
11:35 PM64.4 °F55.4 °F73 %29.98 in10.0 miSSW (210°)3.5 mphClear
11:55 PM64.4 °F55.4 °F73 %29.98 in10.0 miCalmClear
Hourly data recorded from KEEN, located miles away from Vernon, Vermont







STORIES FROM OUR PARTNERS